RAM1419 GMMN-GMML

Flight info

Callsign RAM1419
Flight time N/A
Altitude 15000
Route COST4A COSTI LAY
Aircraft AT76/M-SDE2E3FGHIRWXY/LB1

Departure

Time N/A
Airport Mohammed V International Airport (GMMN)

Arrival

Time 2026-04-26 00:47
Airport Laayoune Hassan I International Airport (GMML)
Time Latitude Longitude Altitude Speed Heading
2026-04-26 00:03 27.93970 -15.38719 85 ft 0 kts 289°
2026-04-26 00:09 27.93970 -15.38720 85 ft 0 kts 289°
2026-04-26 00:10 27.93970 -15.38721 85 ft 0 kts 289°
2026-04-26 00:10 27.93970 -15.38726 85 ft 1 kts 268°
2026-04-26 00:10 27.93967 -15.38733 85 ft 1 kts 224°
2026-04-26 00:10 27.93953 -15.38731 85 ft 4 kts 141°
2026-04-26 00:11 27.93920 -15.38688 85 ft 9 kts 168°
2026-04-26 00:11 27.93859 -15.38706 85 ft 11 kts 198°
2026-04-26 00:11 27.93759 -15.38754 85 ft 21 kts 200°
2026-04-26 00:11 27.93601 -15.38825 85 ft 28 kts 201°
2026-04-26 00:12 27.93452 -15.38856 85 ft 16 kts 122°
2026-04-26 00:12 27.93405 -15.38748 85 ft 11 kts 166°
2026-04-26 00:12 27.93336 -15.38780 85 ft 13 kts 204°
2026-04-26 00:12 27.93221 -15.38833 85 ft 22 kts 201°
2026-04-26 00:13 27.93060 -15.38906 85 ft 28 kts 203°
2026-04-26 00:13 27.92870 -15.38993 85 ft 31 kts 201°
2026-04-26 00:13 27.92669 -15.39084 85 ft 30 kts 201°
2026-04-26 00:13 27.92461 -15.39176 85 ft 34 kts 200°
2026-04-26 00:14 27.92228 -15.39285 85 ft 36 kts 202°
2026-04-26 00:14 27.92018 -15.39327 85 ft 26 kts 164°
2026-04-26 00:14 27.91895 -15.39266 85 ft 12 kts 131°
2026-04-26 00:14 27.91900 -15.39237 85 ft 0 kts 33°
2026-04-26 00:15 27.91967 -15.39205 85 ft 44 kts 21°
2026-04-26 00:15 27.92489 -15.38971 87 ft 111 kts 21°
2026-04-26 00:15 27.93228 -15.38623 566 ft 120 kts 22°
2026-04-26 00:15 27.94107 -15.38217 887 ft 150 kts 22°
2026-04-26 00:16 27.95122 -15.37778 1388 ft 162 kts 21°
2026-04-26 00:16 27.96203 -15.37323 2010 ft 164 kts 20°
2026-04-26 00:16 27.97249 -15.36884 2663 ft 162 kts 20°
2026-04-26 00:16 27.98313 -15.36429 3256 ft 165 kts 20°
2026-04-26 00:17 27.99404 -15.35957 3841 ft 166 kts 20°
2026-04-26 00:17 28.00479 -15.35444 4401 ft 169 kts 22°
2026-04-26 00:17 28.01553 -15.34916 4968 ft 171 kts 22°
2026-04-26 00:17 28.02593 -15.34237 5466 ft 179 kts 39°
2026-04-26 00:18 28.03117 -15.32969 6023 ft 184 kts 76°
2026-04-26 00:18 28.02916 -15.31516 6515 ft 190 kts 105°
2026-04-26 00:18 28.02418 -15.30099 6957 ft 197 kts 111°
2026-04-26 00:18 28.01882 -15.28669 7493 ft 198 kts 111°
2026-04-26 00:19 28.01341 -15.27243 8039 ft 198 kts 112°
2026-04-26 00:19 28.00767 -15.25813 8536 ft 200 kts 114°
2026-04-26 00:19 28.00164 -15.24378 8999 ft 202 kts 115°
2026-04-26 00:19 27.99566 -15.22957 9442 ft 203 kts 114°
2026-04-26 00:20 27.98956 -15.21506 9884 ft 205 kts 114°
2026-04-26 00:20 27.98339 -15.20038 10261 ft 209 kts 115°
2026-04-26 00:20 27.97711 -15.18528 10621 ft 213 kts 115°
2026-04-26 00:20 27.97085 -15.17003 11030 ft 214 kts 114°
2026-04-26 00:21 27.96458 -15.15473 11437 ft 215 kts 114°
2026-04-26 00:21 27.95829 -15.13935 11826 ft 217 kts 114°
2026-04-26 00:21 27.95192 -15.12383 12216 ft 218 kts 114°
2026-04-26 00:21 27.94554 -15.10825 12585 ft 219 kts 114°
2026-04-26 00:22 27.93908 -15.09253 12962 ft 221 kts 114°
2026-04-26 00:22 27.93259 -15.07670 13328 ft 222 kts 114°
2026-04-26 00:22 27.92615 -15.06104 13682 ft 223 kts 114°
2026-04-26 00:22 27.91955 -15.04502 14038 ft 225 kts 114°
2026-04-26 00:23 27.91294 -15.02893 14387 ft 226 kts 114°
2026-04-26 00:23 27.90634 -15.01282 14726 ft 227 kts 114°
2026-04-26 00:23 27.89962 -14.99643 14975 ft 234 kts 114°
2026-04-26 00:23 27.89265 -14.97939 15086 ft 244 kts 114°
2026-04-26 00:24 27.88535 -14.96150 15122 ft 256 kts 114°
2026-04-26 00:24 27.87774 -14.94282 15128 ft 266 kts 114°
2026-04-26 00:24 27.86988 -14.92354 15129 ft 273 kts 114°
2026-04-26 00:24 27.86185 -14.90385 15128 ft 278 kts 115°
2026-04-26 00:25 27.85379 -14.88408 15128 ft 281 kts 115°
2026-04-26 00:25 27.84557 -14.86392 15125 ft 284 kts 115°
2026-04-26 00:25 27.83725 -14.84350 15125 ft 286 kts 115°
2026-04-26 00:25 27.82885 -14.82298 15125 ft 288 kts 115°
2026-04-26 00:26 27.82033 -14.80254 15124 ft 289 kts 115°
2026-04-26 00:26 27.81163 -14.78196 15124 ft 290 kts 115°
2026-04-26 00:26 27.80312 -14.76151 15124 ft 290 kts 115°
2026-04-26 00:26 27.79451 -14.74056 15125 ft 291 kts 115°
2026-04-26 00:27 27.78612 -14.72008 15125 ft 292 kts 115°
2026-04-26 00:27 27.77756 -14.69915 15125 ft 292 kts 115°
2026-04-26 00:27 27.76904 -14.67832 15125 ft 292 kts 115°
2026-04-26 00:27 27.76042 -14.65751 15126 ft 293 kts 115°
2026-04-26 00:28 27.75461 -14.64374 15126 ft 293 kts 115°
2026-04-26 00:28 27.74296 -14.61593 15125 ft 293 kts 115°
2026-04-26 00:28 27.73719 -14.60207 15125 ft 293 kts 115°
2026-04-26 00:28 27.72848 -14.58130 15125 ft 294 kts 116°
2026-04-26 00:29 27.71976 -14.56036 15125 ft 294 kts 115°
2026-04-26 00:29 27.71120 -14.53937 15125 ft 294 kts 115°
2026-04-26 00:29 27.70255 -14.51841 15126 ft 294 kts 115°
2026-04-26 00:29 27.69382 -14.49754 15126 ft 294 kts 116°
2026-04-26 00:30 27.68505 -14.47672 15126 ft 294 kts 116°
2026-04-26 00:30 27.67629 -14.45580 15126 ft 294 kts 115°
2026-04-26 00:30 27.66771 -14.43487 15126 ft 294 kts 115°
2026-04-26 00:30 27.65923 -14.41420 15117 ft 295 kts 115°
2026-04-26 00:31 27.65049 -14.39331 15113 ft 295 kts 116°
2026-04-26 00:31 27.64166 -14.37234 15111 ft 295 kts 116°
2026-04-26 00:31 27.63287 -14.35153 15111 ft 294 kts 116°
2026-04-26 00:31 27.62417 -14.33056 15111 ft 295 kts 115°
2026-04-26 00:32 27.62025 -14.32099 15111 ft 295 kts 115°
2026-04-26 00:32 27.61775 -14.31490 15110 ft 295 kts 115°
2026-04-26 00:32 27.60021 -14.27300 15111 ft 295 kts 116°
2026-04-26 00:33 27.59136 -14.25209 15111 ft 295 kts 116°
2026-04-26 00:33 27.58250 -14.23121 15111 ft 295 kts 116°
2026-04-26 00:33 27.57390 -14.21048 15111 ft 295 kts 115°
2026-04-26 00:33 27.56532 -14.18948 15111 ft 295 kts 115°
2026-04-26 00:34 27.55663 -14.16846 15111 ft 295 kts 115°
2026-04-26 00:34 27.54789 -14.14765 15111 ft 294 kts 116°
2026-04-26 00:34 27.53908 -14.12682 15111 ft 294 kts 116°
2026-04-26 00:34 27.53024 -14.10593 15111 ft 294 kts 116°
2026-04-26 00:35 27.52152 -14.08537 15110 ft 294 kts 116°
2026-04-26 00:35 27.51274 -14.06447 15110 ft 296 kts 115°
2026-04-26 00:35 27.50404 -14.04345 15113 ft 296 kts 115°
2026-04-26 00:35 27.49527 -14.02248 15111 ft 295 kts 116°
2026-04-26 00:36 27.48645 -14.00163 15110 ft 294 kts 116°
2026-04-26 00:36 27.47764 -13.98087 15111 ft 294 kts 116°
2026-04-26 00:36 27.46879 -13.96003 15111 ft 294 kts 116°
2026-04-26 00:36 27.45996 -13.93927 15111 ft 294 kts 116°
2026-04-26 00:37 27.45122 -13.91844 15111 ft 294 kts 115°
2026-04-26 00:37 27.44262 -13.89756 15111 ft 294 kts 115°
2026-04-26 00:37 27.43394 -13.87669 15111 ft 294 kts 115°
2026-04-26 00:37 27.42514 -13.85586 15111 ft 294 kts 116°
2026-04-26 00:38 27.41631 -13.83510 15111 ft 294 kts 116°
2026-04-26 00:38 27.40748 -13.81435 15111 ft 294 kts 116°
2026-04-26 00:38 27.39874 -13.79386 15111 ft 294 kts 116°
2026-04-26 00:38 27.38977 -13.77282 15111 ft 294 kts 116°
2026-04-26 00:39 27.38101 -13.75230 15111 ft 294 kts 116°
2026-04-26 00:39 27.37218 -13.73139 14984 ft 298 kts 115°
2026-04-26 00:39 27.36334 -13.71005 14738 ft 303 kts 115°
2026-04-26 00:39 27.35427 -13.68860 14483 ft 304 kts 116°
2026-04-26 00:40 27.34488 -13.66712 14160 ft 307 kts 117°
2026-04-26 00:40 27.33523 -13.64559 13834 ft 308 kts 117°
2026-04-26 00:40 27.32537 -13.62412 13509 ft 308 kts 118°
2026-04-26 00:40 27.31562 -13.60277 13182 ft 305 kts 117°
2026-04-26 00:41 27.30624 -13.58192 12860 ft 300 kts 117°
2026-04-26 00:41 27.29683 -13.56093 12527 ft 295 kts 117°
2026-04-26 00:41 27.28759 -13.54059 12151 ft 293 kts 118°
2026-04-26 00:41 27.27798 -13.52037 11728 ft 292 kts 119°
2026-04-26 00:42 27.26801 -13.50061 11278 ft 289 kts 121°
2026-04-26 00:42 27.25767 -13.48146 10814 ft 286 kts 123°
2026-04-26 00:42 27.24688 -13.46289 10332 ft 282 kts 124°
2026-04-26 00:42 27.23571 -13.44503 9828 ft 279 kts 127°
2026-04-26 00:43 27.22397 -13.42759 9250 ft 280 kts 129°
2026-04-26 00:43 27.21151 -13.41045 8652 ft 281 kts 130°
2026-04-26 00:43 27.19902 -13.39459 8153 ft 267 kts 133°
2026-04-26 00:43 27.18633 -13.37975 7615 ft 255 kts 134°
2026-04-26 00:44 27.17358 -13.36598 6891 ft 254 kts 136°
2026-04-26 00:44 27.16043 -13.35285 5969 ft 260 kts 138°
2026-04-26 00:44 27.14625 -13.33970 4896 ft 269 kts 140°
2026-04-26 00:44 27.13126 -13.32688 3954 ft 270 kts 141°
2026-04-26 00:45 27.11605 -13.31498 3246 ft 261 kts 143°
2026-04-26 00:45 27.10113 -13.30410 2643 ft 250 kts 143°
2026-04-26 00:45 27.08941 -13.29083 2012 ft 234 kts 118°
2026-04-26 00:45 27.08426 -13.27367 1609 ft 230 kts 95°
2026-04-26 00:46 27.08507 -13.25693 1353 ft 197 kts 73°
2026-04-26 00:46 27.09221 -13.24560 680 ft 162 kts 32°
2026-04-26 00:46 27.10235 -13.24297 402 ft 155 kts
2026-04-26 00:46 27.11347 -13.24142 354 ft 164 kts
2026-04-26 00:47 27.12471 -13.23803 329 ft 166 kts 20°
2026-04-26 00:47 27.13397 -13.23426 237 ft 120 kts 17°
2026-04-26 00:47 27.14075 -13.23209 214 ft 84 kts 17°
2026-04-26 00:47 27.14474 -13.23077 214 ft 31 kts 17°
2026-04-26 00:48 27.14517 -13.23063 214 ft 0 kts 18°